Weather History for Harbor Springs, MI

Change the Weather History Date:

Sunday, January 30, 2011

  Actual Average (KPLN) Record (KPLN)
Temperature  
Mean Temperature 10 °F -  
Max Temperature 19 °F 27 °F 43 °F (1988)
Min Temperature 1 °F 7 °F -27 °F (1961)
Degree Days  
Heating Degree Days 55    
Moisture  
Dew Point 5 °F    
Average Humidity 71    
Maximum Humidity 86    
Minimum Humidity 49    
Precipitation  
Precipitation 0.00 in - - ()
Sea Level Pressure  
Sea Level Pressure 30.27 in    
Wind  
Wind Speed 4 mph (North)    
Max Wind Speed 9 mph    
Max Gust Speed -    
Visibility 10 miles    
Events Snow    
Averages and records for this station are not official NWS values.
T = Trace of Precipitation, MM = Missing Value Source: NWS Daily Summary

Daily Weather History Graph

Daily Weather History Graph

Search for Another Location

Airport:

Trip Planner

Search our weather history database for the weather conditions in past years. The results will help you decide how hot, cold, wet, or windy it might be!

Date:

Astronomy

Jan. 30, 2011 Rise Set
Actual Time 8:03 AM EST 5:43 PM EST
Civil Twilight 7:31 AM EST 6:15 PM EST
Nautical Twilight 6:55 AM EST 6:50 PM EST
Astronomical Twilight 6:21 AM EST 7:25 PM EST
Moon 5:41 AM EST (1/30) 2:28 PM EST (1/30)
Length of Visible Light 10h 43m
Length of Day
9h 40m
Waning Crescent, 11% of the Moon is Illuminated
Jan 30
Waning Crescent
Feb 2
New
Feb 11
First Quarter
Feb 18
Full
Feb 24
Last Quarter

Hourly Weather History & Observations

Time (EST) Temp. Windchill Dew Point Humidity Pressure Visibility Wind Dir Wind Speed Gust Speed Precip Events Conditions
12:14 AM 15.8 °F 10.2 °F 12.2 °F 86% 30.08 in 4.0 mi North 3.5 mph - N/A Snow Light Snow
12:34 AM 15.8 °F 10.2 °F 12.2 °F 86% 30.08 in 4.0 mi North 3.5 mph - N/A Snow Light Snow
12:55 AM 15.8 °F 10.2 °F 12.2 °F 86% 30.08 in 7.0 mi North 3.5 mph - N/A Snow Light Snow
1:14 AM 15.8 °F 10.2 °F 12.2 °F 86% 30.08 in 7.0 mi North 3.5 mph - N/A Snow Light Snow
1:34 AM 15.8 °F - 12.2 °F 86% 30.08 in 7.0 mi Calm Calm - N/A   Overcast
1:55 AM 15.8 °F 10.2 °F 12.2 °F 86% 30.09 in 10.0 mi North 3.5 mph - N/A   Overcast
2:14 AM 15.8 °F 8.6 °F 12.2 °F 86% 30.09 in 10.0 mi North 4.6 mph - N/A   Overcast
2:34 AM 15.8 °F - 12.2 °F 86% 30.09 in 10.0 mi Calm Calm - N/A   Overcast
2:54 AM 14.0 °F - 10.4 °F 86% 30.11 in 10.0 mi Calm Calm - N/A   Mostly Cloudy
3:34 AM 12.2 °F 2.9 °F 8.6 °F 85% 30.12 in 10.0 mi NNW 5.8 mph - N/A   Clear
3:54 AM 12.2 °F 1.7 °F 8.6 °F 85% 30.13 in 10.0 mi North 6.9 mph - N/A   Scattered Clouds
4:14 AM 12.2 °F 2.9 °F 8.6 °F 85% 30.13 in 10.0 mi North 5.8 mph - N/A   Scattered Clouds
4:35 AM 10.4 °F 2.2 °F 6.8 °F 85% 30.13 in 10.0 mi North 4.6 mph - N/A   Clear
4:54 AM 10.4 °F -0.4 °F 6.8 °F 85% 30.14 in 10.0 mi North 6.9 mph - N/A   Clear
5:14 AM 8.6 °F 0.1 °F 3.2 °F 79% 30.15 in 10.0 mi North 4.6 mph - N/A   Clear
5:35 AM 3.2 °F -4.2 °F -0.4 °F 85% 30.16 in 10.0 mi ENE 3.5 mph - N/A   Clear
5:54 AM 3.2 °F -4.2 °F -0.4 °F 85% 30.16 in 10.0 mi NE 3.5 mph - N/A   Clear
6:14 AM 3.2 °F -4.2 °F -0.4 °F 85% 30.17 in 10.0 mi ENE 3.5 mph - N/A   Clear
6:35 AM 3.2 °F - -0.4 °F 85% 30.18 in 10.0 mi Calm Calm - N/A   Clear
7:14 AM 3.2 °F -4.2 °F -2.2 °F 78% 30.19 in 10.0 mi North 3.5 mph - N/A   Scattered Clouds
7:35 AM 3.2 °F - -0.4 °F 85% 30.20 in 10.0 mi Calm Calm - N/A   Clear
7:54 AM 1.4 °F -6.2 °F -4.0 °F 78% 30.21 in 10.0 mi North 3.5 mph - N/A   Clear
8:14 AM 1.4 °F - -4.0 °F 78% 30.22 in 10.0 mi Calm Calm - N/A   Clear
8:35 AM 3.2 °F - -2.2 °F 78% 30.22 in 10.0 mi Calm Calm - N/A   Scattered Clouds
8:54 AM 3.2 °F - -2.2 °F 78% 30.22 in 10.0 mi Calm Calm - N/A   Scattered Clouds
9:14 AM 3.2 °F - -0.4 °F 85% 30.23 in 10.0 mi Calm Calm - N/A   Scattered Clouds
9:34 AM 5.0 °F - 1.4 °F 85% 30.24 in 10.0 mi Calm Calm - N/A   Clear
10:15 AM 15.8 °F 8.6 °F 10.4 °F 79% 30.25 in 10.0 mi NNW 4.6 mph - N/A   Clear
10:34 AM 17.6 °F 9.3 °F 10.4 °F 73% 30.26 in 10.0 mi NNW 5.8 mph - N/A   Clear
10:54 AM 17.6 °F 8.2 °F 8.6 °F 68% 30.26 in 10.0 mi North 6.9 mph - N/A   Clear
11:15 AM 17.6 °F 7.3 °F 8.6 °F 68% 30.27 in 10.0 mi North 8.1 mph - N/A   Clear
11:34 AM 19.4 °F 11.5 °F 8.6 °F 63% 30.28 in 10.0 mi North 5.8 mph - N/A   Clear
11:54 AM 19.4 °F 11.5 °F 8.6 °F 63% 30.28 in 10.0 mi North 5.8 mph - N/A   Clear
12:14 PM 19.4 °F 10.4 °F 6.8 °F 58% 30.28 in 10.0 mi North 6.9 mph - N/A   Clear
12:34 PM 19.4 °F 11.5 °F 6.8 °F 58% 30.29 in 10.0 mi North 5.8 mph - N/A   Clear
12:54 PM 19.4 °F - 5.0 °F 54% 30.30 in 10.0 mi Calm Calm - N/A   Scattered Clouds
1:14 PM 19.4 °F 10.4 °F 6.8 °F 58% 30.29 in 10.0 mi North 6.9 mph - N/A   Scattered Clouds
1:34 PM 19.4 °F 8.6 °F 5.0 °F 54% 30.29 in 10.0 mi North 9.2 mph - N/A   Scattered Clouds
1:54 PM 19.4 °F 10.4 °F 5.0 °F 54% 30.30 in 10.0 mi North 6.9 mph - N/A   Clear
2:15 PM 19.4 °F 9.5 °F 5.0 °F 54% 30.31 in 10.0 mi North 8.1 mph - N/A   Clear
2:34 PM 19.4 °F 9.5 °F 3.2 °F 49% 30.31 in 10.0 mi North 8.1 mph - N/A   Clear
2:55 PM 19.4 °F 9.5 °F 3.2 °F 49% 30.32 in 10.0 mi North 8.1 mph - N/A   Clear
3:14 PM 19.4 °F 9.5 °F 3.2 °F 49% 30.33 in 10.0 mi NNW 8.1 mph - N/A   Clear
3:34 PM 19.4 °F 11.5 °F 3.2 °F 49% 30.34 in 10.0 mi North 5.8 mph - N/A   Scattered Clouds
3:55 PM 19.4 °F 11.5 °F 5.0 °F 54% 30.35 in 10.0 mi NNW 5.8 mph - N/A   Scattered Clouds
4:14 PM 19.4 °F 10.4 °F 5.0 °F 54% 30.35 in 10.0 mi North 6.9 mph - N/A   Scattered Clouds
4:34 PM 19.4 °F 9.5 °F 5.0 °F 54% 30.37 in 10.0 mi North 8.1 mph - N/A   Mostly Cloudy
4:55 PM 19.4 °F 14.3 °F 5.0 °F 54% 30.37 in 10.0 mi North 3.5 mph - N/A   Scattered Clouds
5:14 PM 17.6 °F 8.2 °F 3.2 °F 53% 30.38 in 10.0 mi NNW 6.9 mph - N/A   Clear
5:34 PM 17.6 °F 9.3 °F 3.2 °F 53% 30.39 in 10.0 mi NNW 5.8 mph - N/A   Clear
5:55 PM 15.8 °F 7.2 °F 3.2 °F 58% 30.39 in 10.0 mi NNW 5.8 mph - N/A   Clear
6:14 PM 15.8 °F 10.2 °F 5.0 °F 62% 30.41 in 10.0 mi North 3.5 mph - N/A   Clear
6:35 PM 14.0 °F - 3.2 °F 62% 30.41 in 10.0 mi Calm Calm - N/A   Clear
7:14 PM 12.2 °F 2.9 °F 3.2 °F 67% 30.43 in 10.0 mi North 5.8 mph - N/A   Clear
7:35 PM 12.2 °F 4.3 °F 3.2 °F 67% 30.44 in 10.0 mi North 4.6 mph - N/A   Clear
7:54 PM 12.2 °F 4.3 °F 1.4 °F 62% 30.44 in 10.0 mi North 4.6 mph - N/A   Clear
8:14 PM 12.2 °F 4.3 °F 1.4 °F 62% 30.45 in 10.0 mi North 4.6 mph - N/A   Clear
8:35 PM 10.4 °F - 1.4 °F 67% 30.45 in 10.0 mi Calm Calm - N/A   Clear
8:54 PM 10.4 °F 2.2 °F 3.2 °F 73% 30.46 in 10.0 mi North 4.6 mph - N/A   Clear
9:14 PM 8.6 °F - 1.4 °F 73% 30.47 in 10.0 mi Calm Calm - N/A   Clear
9:35 PM 5.0 °F - -0.4 °F 78% 30.47 in 10.0 mi Calm Calm - N/A   Clear
9:54 PM 5.0 °F - -0.4 °F 78% 30.48 in 10.0 mi Calm Calm - N/A   Clear
10:14 PM 3.2 °F - -4.0 °F 72% 30.48 in 10.0 mi Calm Calm - N/A   Clear
10:35 PM 1.4 °F - -4.0 °F 78% 30.48 in 10.0 mi Calm Calm - N/A   Clear
10:54 PM 1.4 °F - -4.0 °F 78% 30.48 in 10.0 mi Calm Calm - N/A   Clear
11:14 PM 1.4 °F -6.2 °F -4.0 °F 78% 30.48 in 10.0 mi North 3.5 mph - N/A   Clear
11:35 PM 1.4 °F - -4.0 °F 78% 30.49 in 10.0 mi Calm Calm - N/A   Mostly Cloudy
11:54 PM 1.4 °F - -4.0 °F 78% 30.48 in 10.0 mi Calm Calm - N/A   Overcast